Flag for Germany Weather past 2 weeks in Erkrath, North Rhine-Westphalia, Germany

Now
39 °F

Passing clouds.


Feels Like: 32 °F
Forecast: 39 / 45 °F
Wind: 13 mph from Southwest

Location: Duesseldorf

Current Time: Dec 20, 2014 at 8:01:08 AM

Latest Report: Dec 20, 2014 at 7:20 AM


Visibility: N/A

Pressure: 30.12 "Hg

Humidity: 87%

Dew point: 36 °F

Location of ErkrathLocation

Historic Weather in Erkrath — Graph

°F

Erkrath temperature yesterday

Maximum temperature yesterday: 54 °F (at 12:20 AM)
Minimum temperature yesterday: 41 °F (at 11:50 PM)
Average temperature yesterday: 49 °F

Past Weeks' High & Low Weather Summary

 TemperatureHumidityPressure
High55 °F (Dec 18, 4:50 PM)100% (Dec 8, 5:20 AM)30.36 "Hg (Dec 8, 5:20 AM)
Low30 °F (Dec 14, 5:50 AM)61% (Dec 7, 1:50 PM)29.42 "Hg (Dec 12, 12:50 PM)
Average42 °F87%29.95 "Hg
* Reported Dec 5 6:20 AM — Dec 20 6:50 AM, Erkrath, Weather by CustomWeather, © 2014

Note: Actual official high and low records may vary slightly from our data, if they occured in-between our weather recording intervals... More about our weather records

Advertising

Erkrath weather history for previous 24 hours

 ConditionsComfort  
Time TempWeatherWind HumidityBarometerVisibility
6:50 AM
Dec 20
39 °FClear.13 mph87%30.15 "Hg10 mi
6:20 AM41 °FClear.15 mph81%30.15 "Hg10 mi
5:50 AM41 °FClear.14 mph81%30.15 "Hg10 mi
5:20 AM41 °FClear.14 mph81%30.15 "Hg10 mi
4:50 AM41 °FClear.14 mph81%30.15 "Hg10 mi
4:20 AM39 °FClear.14 mph87%30.12 "Hg10 mi
3:50 AM41 °FClear.13 mph81%30.15 "Hg10 mi
3:20 AM41 °FClear.13 mph81%30.15 "Hg10 mi
2:50 AM41 °FClear.14 mph81%30.15 "Hg10 mi
2:20 AM41 °FClear.13 mph81%30.12 "Hg10 mi
1:50 AM41 °FClear.14 mph81%30.12 "Hg10 mi
1:20 AM43 °FClear.13 mph76%30.12 "Hg10 mi
12:50 AM41 °FClear.13 mph81%30.12 "Hg10 mi
12:20 AM41 °FClear.10 mph81%30.12 "Hg10 mi
11:50 PM
Dec 19
41 °FClear.12 mph81%30.09 "Hg10 mi
11:20 PM43 °FClear.12 mph76%30.09 "Hg10 mi
10:50 PM43 °FClear.10 mph81%30.09 "Hg10 mi
10:20 PM43 °FClear.13 mph81%30.09 "Hg10 mi
9:50 PM43 °FClear.10 mph81%30.07 "Hg10 mi
9:20 PM43 °FClear.12 mph81%30.07 "Hg10 mi
8:50 PM43 °FClear.12 mph81%30.07 "Hg10 mi
8:20 PM43 °FClear.10 mph81%30.07 "Hg10 mi
7:50 PM43 °FClear.9 mph81%30.04 "Hg10 mi
7:20 PM43 °FClear.12 mph81%30.04 "Hg10 mi
6:50 PM43 °FClear.9 mph81%30.01 "Hg10 mi
6:20 PM43 °FClear.9 mph81%30.01 "Hg10 mi
5:50 PM45 °FClear.10 mph76%29.98 "Hg10 mi
5:20 PM45 °FPassing clouds.10 mph76%29.98 "HgN/A
4:50 PM46 °FPassing clouds.8 mph76%29.95 "HgN/A
4:20 PM46 °FScattered clouds.10 mph76%29.95 "HgN/A
3:50 PM46 °FScattered clouds.16 mph76%29.92 "HgN/A
3:20 PM48 °FBroken clouds.12 mph94%29.89 "HgN/A
2:50 PM48 °FPartly sunny.12 mph94%29.89 "HgN/A
2:20 PM50 °FLight rain. Broken clouds.13 mph88%29.86 "HgN/A
1:50 PM50 °FLight rain. Partly sunny.8 mph94%29.86 "HgN/A
1:20 PM52 °FRain. More clouds than sun.16 mph94%29.86 "Hg2 mi
12:50 PM52 °FDrizzle. More clouds than sun.20 mph94%29.83 "HgN/A
12:20 PM52 °FDrizzle. More clouds than sun.22 mph94%29.83 "HgN/A
11:50 AM52 °FDrizzle. More clouds than sun.22 mph94%29.83 "HgN/A
11:20 AM52 °FDrizzle. Broken clouds.24 mph94%29.83 "HgN/A
10:50 AM52 °FDrizzle. Broken clouds.24 mph94%29.83 "HgN/A
10:20 AM52 °FDrizzle. Broken clouds.26 mph94%29.83 "HgN/A
9:50 AM52 °FDrizzle. Broken clouds.23 mph94%29.83 "HgN/A
9:20 AM52 °FDrizzle. Broken clouds.23 mph94%29.83 "HgN/A
8:50 AM52 °FDrizzle. Broken clouds.22 mph94%29.83 "HgN/A
8:20 AM52 °FPassing clouds.22 mph94%29.83 "HgN/A
Weather by CustomWeather, © 2014

See weather overviewHow to use our weather pages